Regional Weather Roundup
Issued by NWS Sterling, VA

Home | Current Version | Previous Version | Text Only | Print | Product List | Glossary Off
Versions: 1 2 3 4 5 6 7 8 9 10 11 12 13 14 15 16 17 18 19 20 21 22 23 24 25 26 27

000
ASUS41 KLWX 231211
RWRLWX

REGIONAL WEATHER ROUNDUP
NATIONAL WEATHER SERVICE BALTIMORE MD/WASHINGTON DC
800 AM EDT SUN JUL 23 2017

Note: "FAIR" indicates few or no clouds below 12,000 feet
with no significant weather and/or obstructions to visibility.
 TC=TEMPERATURE CELSIUS

 * =Non NWS site. Station does not report precipitation (e.g. rain,
    snow, etc.), thunder, or fog.

DCZ001-MDZ009-015-VAZ040>042-051-053>054-231300-
WASHINGTON METRO

CITY           SKY/WX    TMP DP  RH WIND       PRES   REMARKS
WASHINGTON NAT CLOUDY    77  75  93 CALM      29.80R
DULLES         PTSUNNY   75  73  93 CALM      29.80R
ANDREWS AFB    MOSUNNY   75  74  95 W6        29.79R
FT BELVOIR     CLOUDY    75  74  96 NW3       29.79R
QUANTICO       CLOUDY    76  75  97 W6        29.80R
COLLEGE PARK*  PTSUNNY   74  73  95 CALM      29.78R
LEESBURG*      PTSUNNY   73  73 100 SW3       29.82R
MANASSAS*      CLOUDY    72  72 100 CALM      29.81R FOG
GAITHERSBURG*  PTSUNNY   74  73  97 NW3       29.82R

$$

MDZ006>007-011-014-231300-
BALTIMORE METRO

CITY           SKY/WX    TMP DP  RH WIND       PRES   REMARKS
BWI AIRPORT    PTSUNNY   76  75  97 W7        29.78R
MD SCIENCE CTR   N/A     79  74  84 MISG      29.78R
MARTIN STATE   MOSUNNY   77  75  94 W6        29.79R
ANNAPOLIS      CLOUDY    76  76 100 NW6       29.77R
FORT MEADE*    PTSUNNY   72  70  94 CALM      29.81R

$$

MDZ012-015-019>023-231300-
MARYLAND EASTERN SHORE

CITY           SKY/WX    TMP DP  RH WIND       PRES   REMARKS
OCEAN CITY     CLOUDY    76  74  93 S6        29.78R
SALISBURY      SUNNY     77  75  94 S3        29.78R
CAMBRIDGE*     SUNNY     79  75  89 W5        29.78R
EASTON*        MOSUNNY   79  75  89 NW3       29.82R

$$

MDZ017>025-231300-
SOUTHERN MARYLAND

CITY           SKY/WX    TMP DP  RH WIND       PRES   REMARKS
PATUXENT RIVER CLOUDY    77  76  96 W5        29.79R
ST INIGOES     CLOUDY    79  75  87 SW6       29.79R
LEONARDTOWN*   CLOUDY    77  72  83 SW6       29.81R

$$

MDZ003>005-231300-
NORTH CENTRAL MARYLAND

CITY           SKY/WX    TMP DP  RH WIND       PRES   REMARKS
FREDERICK*     MOSUNNY   75  75 100 SW5       29.82R
HAGERSTOWN APT CLOUDY    76  72  87 S5        29.81R
WESTMINSTER*   MOSUNNY   73  73 100 CALM      29.81R

$$

MDZ501>502-231300-
WESTERN MARYLAND

CITY           SKY/WX    TMP DP  RH WIND       PRES   REMARKS
OAKLAND*       CLOUDY    64  64 100 W5        29.91R VSB<1/4
CUMBERLAND*    CLOUDY    70  70 100 CALM      29.87R VSB<1/4

$$

VAZ025>031-231300-
SHENANDOAH VALLEY

CITY           SKY/WX    TMP DP  RH WIND       PRES   REMARKS
WINCHESTER*    MOSUNNY   72  70  94 CALM      29.82R
FRONT ROYAL*   MOSUNNY   73  72  94 SW6       29.81R
LURAY*         MOSUNNY   72  72 100 CALM      29.84S
NEW MARKET*    MOSUNNY   72  70  94 CALM      29.84R
STAUNTON*      PTSUNNY   74  70  87 SW3       29.88R
WAYNESBORO*    PTSUNNY   77  70  80 SW3       29.88S

$$

WVZ021-048>050-054>055-231300-
EASTERN WEST VIRGINIA PANHANDLE

CITY           SKY/WX    TMP DP  RH WIND       PRES   REMARKS
MARTINSBURG    PTSUNNY   72  70  93 CALM      29.80R FOG
PETERSBURG*    MOSUNNY   75  73  92 CALM      29.85S

$$

VAZ036>039-050-231300-
CENTRAL FOOTHILLS

CITY           SKY/WX    TMP DP  RH WIND       PRES   REMARKS
CHARLOTTESVILL CLOUDY    80  73  79 CALM      29.82R
CULPEPER*      PTSUNNY   75  74  99 CALM      29.81S
ORANGE*        CLOUDY    72  72 100 CALM      29.81R
GORDONSVILLE*  CLOUDY    76  75  99 CALM      29.81R
WARRENTON*     CLOUDY    74  71  91 CALM      29.80R FOG

$$

VAZ055>057-231300-
NORTH AND CENTRAL PIEDMONT

CITY           SKY/WX    TMP DP  RH WIND       PRES   REMARKS
FREDERICKSBRG*   N/A     75  75 100 MISG      29.80R
STAFFORD*      CLOUDY    74  74 100 CALM      29.84R

$$

NCZ024-NYZ072-PAZ021-071-VAZ022-071-231300-
OTHER REGIONAL OBSERVATIONS

CITY           SKY/WX    TMP DP  RH WIND       PRES   REMARKS
NEW YORK CITY  PTSUNNY   73  72  96 CALM      29.80S FOG
PHILADELPHIA   CLOUDY    78  71  79 CALM      29.76R
PITTSBURGH     CLOUDY    74  72  93 SW6       29.82S FOG
ROANOKE        CLOUDY    82  69  64 NW8       29.90R
RICHMOND       PTSUNNY   79  74  84 SW5       29.81R
RALEIGH        MOSUNNY   82  74  76 SW14      29.88R

$$

ANZ530>537-231300-
MARINE OBSERVATIONS

STATION/POSITION TIME  TEMP    WIND        PRES
                       AIR SEA DIR/SP/G
                 (UTC) (F)     (DEG/KT/KT) (MB)
THOMAS PT LIGHT  1200   75 83  280/ 10/ 11   N/A
BALT KEY BRIDGE  1148   76     270/  7/  9 1008.0R
COVE POINT       1148   78     280/  7/ 12 1009.0R
LEWISETTA        1148   78 85  260/  8/  9 1008.7R
SOLOMONS ISLAND  1148   80 84  260/  4/  6   N/A
PINEY POINT      1136          270/  7/  8   N/A

$$





USA.gov is the U.S. government's official web portal to all federal, state and local government web resources and services.